Paynesville, MN

5:22 AM CST on December 17, 2017 (GMT -0600)
Paynesville

Weather History for KPEX - October, 2012

Change the Weather History Date:

Monday, October 8, 2012

  Actual Average (KLJF) Record (KLJF)
Temperature  
Mean Temperature 48 °F -  
Max Temperature 62 °F 61 °F 87 °F (2010)
Min Temperature 34 °F 40 °F 22 °F (1989)
Degree Days  
Heating Degree Days 18    
Moisture  
Dew Point 28 °F    
Average Humidity 50    
Maximum Humidity 80    
Minimum Humidity 33    
Precipitation  
Precipitation 0.00 in - - ()
Sea Level Pressure  
Sea Level Pressure 29.69 in    
Wind  
Wind Speed 6 mph (SSW)    
Max Wind Speed 24 mph    
Max Gust Speed 31 mph    
Visibility 10 miles    
Events Rain    
Averages and records for this station are not official NWS values.
T = Trace of Precipitation, MM = Missing Value Source: NWS Daily Summary

Daily Weather History Graph

Daily Weather History Graph

Search for Another Location

Airport or City:

Trip Planner

Search our weather history database for the weather conditions in past years. The results will help you decide how hot, cold, wet, or windy it might be!

Date:

Astronomy

Oct. 08, 2012 Rise Set
Actual Time 7:26 AM CDT 6:45 PM CDT
Civil Twilight 6:57 AM CDT 7:14 PM CDT
Nautical Twilight 6:22 AM CDT 7:48 PM CDT
Astronomical Twilight 5:48 AM CDT 8:23 PM CDT
Moon No Moon Rise 2:52 PM CDT (10/8)
Length of Visible Light 12h 17m
Length of Day
11h 18m
Last Quarter, 46% of the Moon is Illuminated
Oct 8
Last Quarter
Oct 15
New
Oct 21
First Quarter
Oct 29
Full
Nov 6
Last Quarter

Hourly Weather History & Observations

Time (CDT) Temp. Windchill Dew Point Humidity Pressure Visibility Wind Dir Wind Speed Gust Speed Precip Events Conditions
12:13 AM 38.8 °F 34.6 °F 17.1 °F 41% 29.82 in 10.0 mi South 5.8 mph - N/A   Clear
12:33 AM 38.3 °F 33.2 °F 17.6 °F 43% 29.81 in 10.0 mi South 6.9 mph - N/A   Clear
12:53 AM 37.4 °F 32.8 °F 17.6 °F 45% 29.81 in 10.0 mi SSE 5.8 mph - N/A   Clear
1:14 AM 35.6 °F 32.8 °F 17.6 °F 48% 29.81 in 10.0 mi South 3.5 mph - N/A   Clear
1:34 AM 36.5 °F 33.9 °F 18.3 °F 48% 29.81 in 10.0 mi South 3.5 mph - N/A   Clear
1:53 AM 34.9 °F - 18.0 °F 50% 29.81 in 10.0 mi Calm Calm - N/A   Clear
2:13 AM 35.6 °F - 18.5 °F 50% 29.81 in 10.0 mi Calm Calm - N/A   Clear
2:33 AM 36.7 °F 32.9 °F 18.9 °F 49% 29.80 in 10.0 mi South 4.6 mph - N/A   Clear
2:54 AM 37.4 °F - 18.9 °F 47% 29.79 in 10.0 mi Calm Calm - N/A   Clear
3:13 AM 36.1 °F - 18.5 °F 49% 29.79 in 10.0 mi Calm Calm - N/A   Clear
3:33 AM 37.0 °F - 18.9 °F 48% 29.78 in 10.0 mi Calm Calm - N/A   Clear
3:53 AM 37.4 °F - 18.9 °F 47% 29.77 in 10.0 mi Calm Calm - N/A   Clear
4:14 AM 37.4 °F - 18.5 °F 46% 29.77 in 10.0 mi Calm Calm - N/A   Scattered Clouds
4:33 AM 37.9 °F - 18.9 °F 46% 29.77 in 10.0 mi Calm Calm - N/A   Scattered Clouds
4:54 AM 37.9 °F - 19.2 °F 47% 29.76 in 10.0 mi Calm Calm - N/A   Scattered Clouds
5:33 AM 38.7 °F - 18.9 °F 45% 29.74 in 10.0 mi Calm Calm - N/A   Mostly Cloudy
5:53 AM 38.8 °F 36.5 °F 19.6 °F 46% 29.74 in 10.0 mi South 3.5 mph - N/A   Overcast
6:14 AM 39.2 °F - 20.3 °F 47% 29.73 in 10.0 mi Calm Calm - N/A   Overcast
6:34 AM 39.2 °F - 20.3 °F 47% 29.73 in 10.0 mi Calm Calm - N/A   Overcast
6:54 AM 39.2 °F - 20.3 °F 47% 29.72 in 10.0 mi Calm Calm - N/A   Overcast
7:13 AM 39.7 °F - 20.7 °F 46% 29.72 in 10.0 mi Calm Calm - N/A   Overcast
7:34 AM 40.1 °F - 21.2 °F 47% 29.72 in 10.0 mi Calm Calm - N/A   Overcast
7:53 AM 40.1 °F 38.0 °F 21.6 °F 48% 29.72 in 10.0 mi SSE 3.5 mph - N/A   Mostly Cloudy
8:13 AM 40.3 °F - 21.6 °F 47% 29.72 in 10.0 mi Calm Calm - N/A   Mostly Cloudy
8:34 AM 41.0 °F 39.0 °F 22.1 °F 47% 29.72 in 10.0 mi South 3.5 mph - N/A   Scattered Clouds
8:53 AM 41.7 °F 39.8 °F 23.0 °F 47% 29.70 in 10.0 mi SSE 3.5 mph - N/A   Scattered Clouds
9:13 AM 42.4 °F 39.6 °F 23.7 °F 48% 29.68 in 10.0 mi SE 4.6 mph - N/A   Scattered Clouds
9:34 AM 43.5 °F 37.9 °F 24.6 °F 47% 29.67 in 10.0 mi SSE 10.4 mph - N/A   Mostly Cloudy
9:53 AM 44.8 °F 39.4 °F 24.8 °F 46% 29.67 in 10.0 mi South 10.4 mph - N/A   Scattered Clouds
10:13 AM 47.5 °F - 25.7 °F 43% 29.67 in 10.0 mi South 11.5 mph - N/A   Mostly Cloudy
10:34 AM 49.1 °F - 26.1 °F 41% 29.66 in 10.0 mi South 11.5 mph - N/A   Overcast
10:53 AM 49.5 °F - 26.4 °F 41% 29.65 in 10.0 mi South 9.2 mph 16.1 mph N/A   Overcast
11:13 AM 50.4 °F - 26.6 °F 40% 29.63 in 10.0 mi South 11.5 mph - N/A   Mostly Cloudy
11:34 AM 51.6 °F - 26.6 °F 38% 29.63 in 10.0 mi South 11.5 mph - N/A   Overcast
11:53 AM 51.8 °F - 27.0 °F 38% 29.62 in 10.0 mi South 8.1 mph - N/A   Overcast
12:14 PM 53.1 °F - 27.0 °F 37% 29.61 in 10.0 mi South 13.8 mph 20.7 mph N/A   Overcast
12:34 PM 54.1 °F - 27.5 °F 36% 29.59 in 10.0 mi South 16.1 mph 21.9 mph N/A   Overcast
12:53 PM 54.5 °F - 27.5 °F 35% 29.59 in 10.0 mi South 12.7 mph 19.6 mph N/A   Mostly Cloudy
1:13 PM 55.4 °F - 30.0 °F 38% 29.59 in 10.0 mi South 10.4 mph 16.1 mph N/A Rain Light Rain
1:33 PM 52.9 °F - 33.1 °F 47% 29.59 in 10.0 mi SSW 10.4 mph - N/A   Overcast
1:53 PM 53.1 °F - 32.9 °F 46% 29.58 in 10.0 mi South 10.4 mph 16.1 mph N/A   Overcast
2:14 PM 53.8 °F - 32.9 °F 45% 29.58 in 10.0 mi SSW 9.2 mph - N/A   Overcast
2:33 PM 54.5 °F - 32.2 °F 43% 29.58 in 10.0 mi SSW 12.7 mph 16.1 mph N/A   Overcast
2:53 PM 56.8 °F - 32.4 °F 40% 29.57 in 10.0 mi SSW 10.4 mph - N/A   Mostly Cloudy
3:14 PM 58.8 °F - 32.2 °F 37% 29.58 in 10.0 mi SW 11.5 mph - N/A   Scattered Clouds
3:33 PM 61.9 °F - 32.5 °F 33% 29.59 in 10.0 mi West 20.7 mph 25.3 mph N/A   Scattered Clouds
3:54 PM 60.6 °F - 35.4 °F 39% 29.59 in 10.0 mi West 24.2 mph 27.6 mph N/A   Mostly Cloudy
4:14 PM 61.7 °F - 36.1 °F 39% 29.59 in 10.0 mi WSW 18.4 mph 23.0 mph N/A   Scattered Clouds
4:33 PM 61.9 °F - 37.4 °F 40% 29.59 in 10.0 mi West 23.0 mph 27.6 mph N/A   Scattered Clouds
4:54 PM 60.6 °F - 38.3 °F 44% 29.60 in 10.0 mi West 18.4 mph 25.3 mph N/A   Overcast
5:13 PM 59.9 °F - 38.3 °F 45% 29.61 in 10.0 mi West 23.0 mph 31.1 mph N/A   Overcast
5:33 PM 58.1 °F - 37.6 °F 46% 29.63 in 10.0 mi WNW 18.4 mph 25.3 mph N/A   Overcast
5:54 PM 57.4 °F - 37.6 °F 48% 29.64 in 10.0 mi West 18.4 mph 23.0 mph N/A   Overcast
6:13 PM 56.7 °F - 37.0 °F 48% 29.65 in 10.0 mi West 12.7 mph 25.3 mph N/A   Mostly Cloudy
6:33 PM 55.4 °F - 36.5 °F 49% 29.66 in 10.0 mi WNW 13.8 mph - N/A   Scattered Clouds
6:54 PM 53.2 °F - 38.7 °F 58% 29.68 in 10.0 mi WNW 12.7 mph 19.6 mph N/A   Clear
7:13 PM 51.3 °F - 38.1 °F 61% 29.69 in 10.0 mi NW 12.7 mph 20.7 mph N/A   Clear
7:34 PM 50.2 °F - 37.4 °F 62% 29.70 in 10.0 mi WNW 11.5 mph 17.3 mph N/A   Clear
7:53 PM 49.1 °F - 37.0 °F 63% 29.71 in 10.0 mi WNW 6.9 mph - N/A   Clear
8:13 PM 47.7 °F - 36.7 °F 66% 29.71 in 10.0 mi Calm Calm - N/A   Clear
8:34 PM 45.9 °F - 36.3 °F 69% 29.71 in 10.0 mi Calm Calm - N/A   Clear
8:54 PM 43.0 °F 41.3 °F 34.3 °F 72% 29.72 in 10.0 mi SW 3.5 mph - N/A   Clear
9:13 PM 41.7 °F - 34.9 °F 77% 29.72 in 10.0 mi Calm Calm - N/A   Clear
9:33 PM 39.2 °F - 33.3 °F 79% 29.72 in 10.0 mi Calm Calm - N/A   Clear
9:54 PM 40.3 °F 38.2 °F 34.3 °F 79% 29.73 in 10.0 mi SSW 3.5 mph - N/A   Clear
10:13 PM 44.1 °F 42.5 °F 36.7 °F 75% 29.72 in 10.0 mi SSW 3.5 mph - N/A   Clear
10:54 PM 41.7 °F - 35.1 °F 77% 29.73 in 10.0 mi Calm Calm - N/A   Scattered Clouds
11:13 PM 42.6 °F - 35.2 °F 75% 29.73 in 10.0 mi Calm Calm - N/A   Mostly Cloudy
11:34 PM 41.0 °F 39.0 °F 35.2 °F 80% 29.73 in 10.0 mi West 3.5 mph - N/A   Scattered Clouds